Location: Recife
(8.0585°S, 34.8848°W)
Time: 20:39:13
(UTC-03:00)

A-11 Canister half - Pass Details

Date: 23 April 2026
Orbit: 1515 x 1684 km, 47.2° (Epoch: 16 May)

Event Time Altitude Azimuth Distance (km) Brightness Sun altitude
Rises 13:42:51 0° 290° (WNW) 4,892 12.3 48.4°
Reaches altitude 10° 13:46:35 10° 280° (W) 3,923 12.0 47.6°
Maximum altitude 13:54:53 29° 224° (SW) 2,739 10.8 45.8°
Drops below altitude 10° 14:03:18 10° 167° (SSE) 3,947 11.0 44.0°
Sets 14:07:08 0° 156° (SSE) 4,926 11.3 43.1°
